Theta_e
350 349 352 352 354 354 353 351 350 347 346 345 345 344 345 345 345 346 347 346 347 347 348 350 349 347 345 348 344 343 342 342 343 344 343 345 346 346 347 347 348 348 347 347 347 346 348 348 345 345 346 346 347 351 348 349 348 344 344 343 343 342
350 350 351 352 353 353 353 351 352 350 349 347 346 345 347 348 347 349 345 348 348 347 347 350 351 349 351 349 348 345 345 345 345 345 345 346 347 347 347 348 347 347 346 346 346 354 352 350 346 347 349 347 351 347 348 347 347 344 343 345 346 346
349 350 352 353 353 353 353 352 350 348 347 346 348 349 347 348 348 347 347 345 348 350 348 350 352 351 352 349 351 347 347 347 347 347 347 347 348 347 347 347 346 345 347 346 350 347 345 344 348 348 349 352 346 345 346 346 345 344 342 343 344 345
350 350 350 350 352 352 352 351 348 347 346 348 348 347 348 347 347 348 346 349 349 350 351 351 351 351 352 353 351 348 348 347 349 347 345 350 347 346 346 345 347 347 347 349 344 342 341 343 343 346 346 344 343 343 343 342 340 342 342 339 341 344
350 350 350 350 351 350 351 349 347 345 345 344 345 346 347 347 347 348 349 350 348 350 349 351 353 352 350 352 352 352 352 353 354 354 346 350 349 347 349 344 348 347 344 343 342 344 343 342 344 343 343 342 343 343 342 342 339 339 340 341 346 344
350 349 350 350 350 350 351 348 347 345 344 345 346 345 346 347 347 350 349 349 349 350 350 350 352 351 351 351 350 352 352 353 351 350 351 347 346 347 345 345 344 343 342 343 343 343 343 342 341 339 340 342 343 342 342 339 339 339 341 340 348 344
348 349 350 351 351 350 349 349 348 345 343 343 346 345 344 344 347 348 349 350 350 348 349 348 350 350 349 351 352 351 350 350 349 348 350 346 347 346 345 343 344 344 343 341 340 341 340 341 342 338 339 340 342 341 341 339 339 338 340 340 343 342
347 348 350 350 351 349 349 348 348 345 345 341 344 345 344 345 348 347 349 350 350 349 348 347 349 348 348 351 352 353 351 348 346 346 349 347 344 345 343 343 346 344 340 340 339 340 338 337 338 341 338 339 340 341 341 339 342 342 341 342 342 340
347 348 349 351 349 348 349 348 348 346 344 343 344 346 345 348 348 348 350 350 351 349 348 349 349 349 349 351 352 353 348 346 348 347 347 346 345 344 344 342 343 342 340 340 340 341 337 338 339 340 337 336 339 340 342 343 343 341 341 341 342 341
347 348 348 350 348 348 348 347 346 346 345 346 345 348 348 348 348 347 347 350 350 349 349 348 349 349 348 350 352 351 349 348 346 347 346 346 345 344 343 341 341 341 338 339 338 338 338 336 335 339 337 339 339 341 342 340 340 339 341 341 342 343
347 348 349 348 347 348 349 347 347 346 346 345 346 348 348 348 347 349 349 352 352 352 351 349 349 350 350 351 351 350 347 347 345 345 346 346 347 346 344 342 343 342 342 339 338 338 336 338 337 337 339 338 339 340 339 341 339 339 339 340 342 342
346 349 349 347 348 348 348 347 347 345 344 346 349 347 346 348 347 348 351 352 351 351 352 352 351 351 352 351 349 346 348 347 346 345 346 345 344 345 344 341 343 343 344 341 338 339 340 339 339 339 339 336 339 338 337 338 337 338 338 340 340 340
346 349 349 348 347 347 348 346 346 346 346 347 347 347 347 347 348 349 351 352 351 351 352 351 351 351 350 351 348 349 346 347 347 346 348 347 344 345 343 341 342 342 341 339 340 340 338 340 339 339 340 337 338 336 336 335 337 337 337 337 337 337
345 348 348 347 348 346 347 347 347 347 347 346 346 346 347 349 348 347 349 351 351 351 350 350 350 350 352 350 350 347 347 346 344 347 346 345 340 341 341 340 341 338 337 338 337 339 337 337 336 336 338 337 337 338 337 335 335 335 336 336 336 337
346 348 348 347 348 348 348 346 346 346 347 346 346 347 347 349 348 347 349 348 350 350 351 351 351 351 352 350 348 347 347 346 347 347 343 343 341 342 341 339 338 337 338 336 337 338 337 338 337 337 337 339 336 335 336 335 335 334 334 336 336 335
345 346 347 347 348 347 347 348 347 346 347 347 346 347 348 348 348 347 348 349 350 351 351 351 351 351 349 350 347 347 346 348 347 345 343 343 342 340 340 339 338 338 336 336 336 336 337 337 337 337 336 337 338 336 334 334 334 333 334 334 333 333
344 345 346 347 347 347 347 347 347 346 347 347 346 346 348 349 349 349 347 347 350 351 351 350 353 352 350 350 347 347 345 346 346 343 342 341 341 340 339 337 337 338 338 335 335 335 337 337 337 337 335 336 336 336 334 334 333 334 334 333 332 330
345 345 344 345 346 347 347 347 347 346 347 345 348 347 347 348 347 347 348 347 349 350 350 350 351 350 349 350 348 345 346 346 344 343 342 341 340 340 339 338 336 339 338 337 335 335 335 337 337 336 336 335 336 334 332 332 332 332 332 332 331 329
343 343 343 345 346 346 347 347 346 347 346 346 347 347 347 346 347 348 348 349 349 349 349 350 350 349 348 347 347 346 345 344 343 341 341 340 340 339 339 338 337 336 338 337 335 337 336 336 336 336 335 335 334 334 333 332 332 332 330 331 329 328
342 341 343 344 344 343 343 342 342 344 342 343 344 344 347 345 346 346 348 349 349 349 348 350 349 349 348 347 345 343 345 343 341 340 340 339 338 337 336 336 336 335 335 335 337 336 336 336 335 336 335 336 335 334 332 331 332 331 331 332 329 328
339 341 341 340 341 340 340 339 342 340 339 341 342 344 344 345 345 346 348 348 348 349 349 349 348 347 346 345 344 343 343 341 340 340 339 338 338 338 337 337 334 336 334 334 334 336 336 338 333 330 333 333 334 333 331 330 330 329 330 329 329 327
339 340 340 341 341 342 342 339 339 339 339 340 341 341 341 344 346 347 348 347 347 347 348 348 347 347 346 344 343 341 341 339 338 339 337 338 336 336 336 336 335 332 334 332 333 334 334 333 327 324 324 324 329 331 331 329 328 327 328 328 329 329
339 339 339 341 342 341 342 343 341 340 340 341 344 345 343 344 346 346 347 347 346 347 347 347 346 345 344 344 342 342 340 338 339 337 336 335 336 335 335 334 333 332 330 333 332 333 333 331 325 329 328 328 321 322 326 327 328 328 327 327 327 328
340 340 340 341 342 344 344 344 344 343 344 343 341 343 344 345 345 345 344 346 346 346 346 344 344 343 344 343 342 339 338 337 337 338 336 333 333 332 334 333 333 332 332 328 327 329 331 332 329 327 319 318 317 320 320 319 320 326 327 325 326 325
340 340 340 341 342 342 342 342 341 342 343 342 342 340 341 340 342 342 342 343 345 344 344 343 343 342 341 341 340 339 337 337 336 337 335 333 332 332 331 332 332 332 332 330 327 329 330 331 330 329 323 322 321 318 314 317 321 323 326 324 324 325
340 340 340 341 342 340 338 338 337 336 335 336 335 335 335 336 338 339 339 343 345 343 342 342 341 340 340 339 339 338 338 335 337 334 333 332 332 331 332 333 332 333 331 332 330 326 326 329 329 328 328 326 323 318 316 319 319 313 324 325 324 324
340 340 342 341 340 339 337 338 338 338 337 337 334 336 339 341 340 339 340 341 343 343 342 341 341 340 339 338 338 337 337 336 334 333 332 332 331 331 332 332 333 331 329 330 330 324 325 326 326 326 327 326 324 323 323 318 313 317 314 317 323 320
341 340 343 342 337 337 337 338 339 341 339 338 337 338 338 339 341 340 338 339 341 340 340 340 340 338 338 337 337 336 336 335 333 333 331 330 330 332 333 333 332 332 331 330 329 325 323 323 322 322 325 324 323 322 322 321 320 316 314 312 316 318
340 340 342 342 340 340 342 342 340 340 339 340 341 339 339 338 338 339 339 339 339 339 339 339 338 337 337 336 335 335 334 333 332 332 331 331 332 332 331 331 331 329 329 327 327 327 324 321 322 321 324 322 322 320 320 320 320 320 313 313 312 313
338 341 340 341 341 340 339 338 340 342 340 338 338 338 338 336 336 338 337 337 337 337 337 336 338 337 336 335 334 334 333 332 332 331 330 331 331 330 329 329 329 329 328 326 326 325 324 323 323 323 322 321 319 320 320 318 317 316 317 315 311 311
335 340 339 339 340 338 339 339 338 340 340 337 337 337 335 335 335 337 335 335 335 336 336 335 335 336 335 334 334 334 332 331 332 331 331 331 329 328 328 328 327 327 327 326 324 324 324 324 322 321 320 318 316 316 315 314 314 314 314 312 311 309
336 337 338 338 338 336 338 338 337 338 340 337 335 335 335 334 335 335 335 335 335 335 335 334 333 333 334 333 333 331 331 331 330 330 330 329 329 328 327 327 326 325 324 325 324 323 323 322 321 319 319 319 317 317 316 315 315 314 312 312 311 309
333 336 338 338 336 335 338 337 334 334 336 337 337 336 336 335 336 335 335 335 334 333 333 332 332 332 332 332 331 331 331 330 329 329 328 327 327 326 325 324 323 322 322 321 321 322 319 320 319 318 317 317 317 316 314 315 313 312 312 312 310 309
333 336 335 336 335 335 336 336 336 336 336 336 337 338 339 337 336 336 336 334 333 333 332 333 332 331 331 331 331 331 330 329 329 328 327 326 326 324 324 322 321 321 320 321 321 320 320 319 319 318 318 314 314 312 312 313 313 312 311 310 308 310
332 335 334 334 334 334 334 335 337 336 337 337 338 338 337 336 336 336 336 335 334 333 333 333 331 331 331 331 330 330 330 329 328 326 326 325 324 323 322 320 320 321 320 320 319 318 318 317 316 316 316 313 312 312 311 311 311 311 311 311 310 310
332 334 335 334 334 334 335 334 334 334 337 338 337 335 336 336 336 337 336 335 333 334 334 333 332 331 330 330 329 328 327 327 326 325 324 323 323 322 321 319 318 319 318 319 318 317 316 316 316 315 314 313 312 310 312 311 311 311 312 312 311 311
333 335 335 336 336 335 336 334 334 335 336 337 336 336 335 335 337 337 336 335 334 334 334 333 331 330 329 329 328 328 326 325 325 324 323 322 321 320 320 319 318 318 317 317 317 315 315 315 314 313 312 312 310 310 311 312 312 312 312 313 311 310
Wind_Speed
13 14 13 12 11 12 13 14 12 12 11 11 10 10 10 10 9 8 8 6 6 7 8 7 8 7 9 6 6 4 4 4 3 2 2 1 1 2 3 3 4 4 5 4 6 7 6 5 5 4 4 6 9 7 4 4 5 5 5 6 6 5
12 14 12 11 9 9 11 12 10 10 9 10 10 11 10 9 9 8 7 7 5 6 5 6 6 8 7 8 7 4 4 4 3 2 2 2 1 2 3 3 4 4 5 7 8 6 6 8 6 4 5 7 8 4 4 4 5 5 5 4 5 8
13 13 13 12 10 10 11 9 10 9 8 9 10 10 8 8 8 8 7 6 5 5 5 6 5 4 5 7 7 5 3 4 5 3 4 3 3 2 3 4 4 5 6 9 8 3 3 2 3 9 8 6 4 4 5 4 5 5 5 4 4 9
13 13 12 9 9 10 10 9 8 8 7 7 8 7 8 7 7 7 6 5 5 5 4 4 5 5 8 7 7 7 5 5 6 6 4 7 8 5 6 8 6 7 10 6 3 3 5 2 4 4 4 4 4 4 5 4 5 5 6 5 4 11
13 13 12 10 10 9 10 9 8 7 7 7 7 7 7 7 7 7 6 6 6 5 5 5 5 5 4 4 5 6 6 5 4 4 7 1 2 3 6 1 4 7 3 3 3 3 3 3 3 3 3 3 4 4 5 4 4 5 6 6 8 11
12 13 12 10 10 10 10 9 8 7 7 6 7 7 7 6 7 7 6 5 6 5 5 5 4 4 4 3 3 3 2 2 2 2 2 0 1 2 2 1 2 4 3 4 4 3 4 3 4 3 3 3 3 4 4 5 5 4 5 5 9 15
12 12 13 11 10 10 9 8 8 7 7 7 6 7 7 7 7 6 6 6 6 5 4 4 4 4 3 3 3 2 2 2 1 1 0 1 1 2 3 3 3 3 4 3 4 4 3 3 3 4 3 3 3 4 4 4 4 5 5 4 11 17
12 12 11 11 10 9 9 9 8 7 7 7 7 7 6 6 7 7 6 5 5 5 5 4 4 4 3 2 2 1 1 1 1 1 2 2 2 3 3 3 4 4 4 4 4 4 5 4 4 3 4 3 3 3 4 4 4 4 4 5 5 14
12 13 12 11 11 9 9 9 9 8 7 9 7 6 6 6 6 6 6 6 5 4 4 3 3 3 2 2 2 2 1 1 2 2 2 2 3 3 3 3 4 5 4 5 4 4 5 4 4 2 3 3 3 3 3 3 4 4 4 4 5 10
13 13 11 11 9 9 9 9 9 8 7 8 7 6 7 7 6 6 6 5 5 4 3 3 3 3 2 2 2 2 1 2 2 2 2 3 3 3 4 4 5 5 6 6 5 4 5 4 4 2 3 3 3 3 2 4 4 5 4 5 5 6
13 13 11 11 10 9 9 9 9 8 8 8 7 7 7 6 6 6 6 6 5 4 3 3 2 3 2 2 2 1 1 2 2 3 2 2 3 3 3 3 4 5 6 6 5 4 4 4 4 3 2 3 3 3 4 4 4 6 6 5 5 5
13 13 12 11 10 10 9 9 9 8 8 8 8 7 7 6 6 5 5 5 4 4 4 3 2 2 2 1 2 1 2 2 3 3 4 4 3 4 3 4 4 4 5 5 5 4 4 3 4 4 4 4 3 3 4 4 4 5 6 5 5 5
14 13 12 12 10 9 9 9 9 8 8 8 8 8 7 7 5 5 5 4 4 5 4 4 3 2 1 2 1 2 2 2 3 4 4 4 4 3 3 3 4 4 4 5 4 3 4 2 3 2 4 3 3 3 4 4 5 5 5 6 7 7
13 13 12 11 10 9 9 9 8 8 7 8 8 7 7 6 6 5 5 5 4 5 4 3 3 2 1 1 2 2 2 2 4 3 2 3 4 4 4 5 4 5 4 4 4 3 4 3 4 3 3 2 3 4 5 5 5 5 6 7 5 6
12 13 12 11 10 9 9 9 8 8 8 8 8 7 6 6 6 5 5 5 4 4 4 4 3 2 1 1 2 2 1 3 3 3 3 4 4 3 4 5 5 6 5 3 3 3 3 4 4 3 2 3 4 4 4 4 4 7 7 5 6 6
14 14 13 12 10 10 9 9 8 8 8 9 8 7 6 6 5 5 4 4 5 5 4 4 3 2 1 1 1 2 1 3 3 3 4 4 4 4 4 4 5 5 5 5 4 4 4 3 3 2 2 3 3 3 3 4 5 7 5 5 6 7
14 14 13 12 11 10 9 9 9 9 9 9 7 6 6 5 5 5 4 4 5 4 4 4 3 2 1 2 2 2 2 3 4 5 3 4 4 3 4 4 4 4 5 5 4 4 4 3 3 1 2 3 3 3 4 4 4 5 4 5 6 6
12 13 11 11 11 10 9 9 9 8 8 7 6 5 5 5 5 5 4 4 4 4 4 4 3 3 2 2 2 1 2 3 3 3 3 3 3 3 4 4 4 4 5 5 5 5 5 3 2 2 3 4 4 3 3 3 5 5 4 5 5 6
11 12 11 11 10 10 10 10 8 8 8 7 6 5 4 4 4 4 4 4 4 3 3 4 3 3 2 3 2 2 2 2 3 2 3 3 3 4 4 4 5 5 4 4 5 5 5 4 2 1 2 2 3 4 4 4 4 6 4 4 5 6
10 11 10 10 10 9 9 9 9 8 8 7 6 6 5 5 4 5 4 4 4 4 4 3 3 3 3 2 2 2 3 2 3 3 3 4 4 5 5 5 5 5 6 4 4 5 5 5 1 0 2 2 3 4 5 5 5 5 4 4 4 5
11 12 10 10 10 10 10 9 9 9 8 7 7 7 5 4 5 4 4 4 4 3 3 4 3 3 3 2 2 3 2 3 3 3 3 4 5 5 5 4 4 2 4 5 4 5 5 5 3 2 2 3 4 3 4 4 6 5 5 4 5 6
11 12 12 11 10 9 9 9 9 9 8 8 8 7 6 6 5 4 4 4 4 4 4 3 3 3 3 2 2 2 3 3 3 4 4 4 4 4 5 5 4 4 2 4 4 6 6 8 2 3 2 4 5 2 3 3 4 7 5 5 5 6
13 13 13 13 11 10 9 8 8 8 8 8 7 6 7 6 5 4 4 4 4 4 5 4 3 3 2 2 2 2 3 3 4 3 3 3 4 4 4 4 5 5 4 2 2 5 7 8 5 4 2 6 3 5 4 5 5 6 5 6 5 5
13 13 12 13 10 10 10 8 7 8 8 8 7 6 6 6 5 5 5 4 4 4 4 4 4 3 2 2 3 3 3 3 3 3 3 3 3 4 4 4 4 4 5 3 3 5 7 8 7 8 2 4 2 4 5 3 4 5 6 7 5 6
13 13 11 11 11 10 10 9 8 9 8 8 6 6 7 7 6 5 5 5 5 4 4 3 3 2 3 3 2 3 3 3 4 4 3 3 4 4 5 4 5 4 5 5 3 3 5 6 8 8 7 3 2 1 4 5 6 4 1 3 5 5
11 12 12 13 12 10 9 10 11 9 9 8 9 8 9 8 7 7 6 5 5 4 4 4 3 2 3 3 3 3 3 3 4 4 4 4 4 3 4 4 4 4 3 4 4 3 3 5 6 8 8 7 7 6 6 6 6 3 4 4 3 4
12 12 12 13 13 9 11 10 11 11 10 9 8 7 7 7 7 6 6 6 6 5 5 4 3 3 3 3 3 3 4 4 4 4 4 4 4 4 4 4 4 4 4 4 3 4 4 3 4 6 5 7 7 6 6 6 5 4 1 2 4 4
10 11 11 13 13 11 10 9 11 11 10 8 8 8 8 7 7 6 6 7 7 5 5 4 3 3 3 3 4 4 4 4 4 4 4 4 4 4 3 4 4 4 4 4 5 4 4 5 4 4 4 4 4 4 4 4 5 5 4 4 2 4
10 11 11 15 11 10 8 8 10 10 10 7 7 7 6 7 7 8 9 7 7 6 5 4 4 4 3 4 4 4 4 4 4 4 4 5 4 4 5 5 4 4 5 5 5 4 4 5 5 5 3 3 2 2 2 3 3 3 4 4 2 4
8 8 9 14 12 11 10 7 6 8 10 9 6 6 8 9 8 8 9 9 7 7 6 5 5 4 4 4 4 5 5 5 5 5 5 5 4 5 5 5 5 5 5 5 5 5 5 4 5 5 5 4 3 1 1 1 3 3 1 2 3 4
9 7 9 11 11 10 9 8 7 9 10 9 9 8 8 10 9 10 10 9 8 7 6 6 5 5 5 5 5 5 5 5 5 4 4 4 4 5 4 4 5 6 5 5 5 5 6 6 5 6 6 5 4 4 4 3 4 3 3 3 3 3
13 11 9 11 10 9 6 6 5 5 7 9 11 9 11 12 10 11 10 9 8 8 7 7 6 5 5 5 6 5 5 5 5 5 4 4 4 4 4 3 4 4 5 5 5 5 6 6 6 5 5 4 4 4 4 4 4 4 4 4 3 3
15 12 8 11 11 10 10 8 7 6 7 6 10 11 11 11 11 10 9 9 8 8 8 7 6 6 6 7 6 6 5 5 5 5 5 5 5 5 4 4 5 6 6 6 6 6 7 7 7 5 4 4 4 4 4 4 4 4 4 3 4 3
15 13 14 11 10 10 10 8 7 7 8 8 10 10 9 10 10 9 9 9 8 8 8 7 7 7 7 7 6 6 5 6 6 6 6 6 6 5 4 4 5 6 6 6 6 7 8 7 6 6 4 5 5 5 5 4 4 4 5 5 5 4
18 14 12 12 12 14 10 11 6 7 8 7 6 4 8 8 9 9 8 9 8 8 8 7 7 7 8 8 7 7 6 6 6 6 6 6 6 5 4 5 5 6 6 6 7 7 7 7 7 7 6 5 5 5 5 5 5 5 5 6 6 5
18 14 15 15 15 16 12 11 13 11 10 9 9 9 6 5 8 9 9 9 9 8 7 7 8 8 8 8 8 8 7 7 7 6 6 6 5 5 5 5 6 6 6 4 7 8 7 7 7 6 6 5 5 5 5 5 5 5 5 5 5 5
17 18 21 19 18 16 14 12 11 10 9 9 9 11 10 11 10 9 8 9 9 8 8 8 8 8 8 8 8 8 8 7 6 6 6 6 6 6 6 5 6 6 6 6 7 7 6 6 6 6 6 6 5 5 5 5 5 5 5 4 5 5
Wind_Direction
171 172 169 167 162 159 142 142 135 129 137 140 140 138 131 133 135 131 135 137 203 141 120 125 166 123 169 137 119 142 166 159 185 182 181 172 304 312 315 315 321 318 300 295 279 263 251 218 223 263 281 262 259 241 277 302 301 301 301 307 300 30
171 173 169 166 163 154 147 161 150 145 147 148 147 143 152 142 146 132 144 176 143 133 134 126 121 133 120 146 148 156 175 185 185 193 212 230 292 292 289 315 300 286 293 270 261 254 199 194 194 204 241 266 257 302 310 314 310 304 312 315 318 57
172 171 168 168 160 158 154 164 154 155 145 159 152 163 149 154 148 150 157 136 142 138 141 133 132 97 105 70 117 171 174 191 196 196 217 213 213 228 258 247 260 265 253 248 242 256 288 336 171 186 217 235 314 320 328 318 307 307 312 4 331 54
172 169 171 171 160 163 155 163 154 156 157 156 161 160 152 158 151 148 147 146 144 144 147 137 110 150 159 158 146 174 186 186 194 199 216 217 193 196 226 221 219 234 234 241 334 332 338 3 334 335 337 318 323 331 305 322 316 325 316 332 17 45
172 172 174 171 162 164 156 164 158 164 162 160 164 156 157 159 153 154 153 159 144 155 149 147 158 170 178 161 151 154 176 188 170 162 196 205 203 149 210 236 200 216 339 329 341 351 325 337 317 308 306 323 316 323 318 324 330 332 326 332 61 41
170 175 177 172 170 158 160 166 159 167 164 161 157 161 159 161 157 161 159 153 149 163 171 159 170 173 161 162 153 138 160 141 146 129 181 314 39 344 347 0 340 338 340 347 334 350 335 327 330 326 327 342 332 318 337 329 337 333 329 329 58 43
171 174 177 176 166 162 170 164 158 167 168 161 162 165 166 162 160 159 159 162 169 169 173 164 167 168 165 161 140 159 140 141 163 126 91 34 15 18 349 354 343 352 335 333 336 329 322 339 330 318 332 335 357 327 336 335 334 337 336 344 70 47
176 175 177 176 170 170 165 160 155 157 182 157 166 173 164 163 155 166 168 170 179 178 172 165 172 168 160 151 130 124 124 144 107 62 44 351 14 14 358 351 354 332 330 333 333 331 334 323 316 317 321 328 344 350 340 341 350 346 339 18 41 57
177 179 177 175 175 173 162 161 158 168 176 162 176 173 164 156 171 163 169 171 180 189 175 176 168 156 162 135 133 141 139 81 41 35 17 25 8 3 359 355 346 333 330 330 320 329 329 315 299 336 333 347 354 7 6 355 6 351 11 10 23 73
178 179 177 178 177 169 165 167 162 170 162 172 176 173 162 172 169 172 170 180 180 192 193 172 164 163 147 129 127 132 132 64 43 35 10 24 17 9 353 3 348 342 332 328 329 345 323 333 318 6 357 14 347 30 23 14 14 9 12 13 19 83
179 181 178 180 178 167 165 167 160 171 166 181 163 170 180 172 173 185 168 171 186 195 195 180 170 160 139 140 142 155 93 69 52 40 14 31 30 8 359 2 1 346 337 332 333 338 335 332 325 24 344 41 1 17 29 32 19 11 12 17 18 10
178 181 180 178 172 170 168 166 166 175 171 171 164 177 182 176 182 178 164 172 184 188 184 164 162 160 146 145 137 114 75 44 39 29 23 13 15 359 347 357 0 339 325 315 331 350 326 336 346 16 308 48 34 360 42 29 25 22 21 17 11 13
180 179 185 177 176 174 170 170 171 173 169 164 174 184 181 180 177 170 159 178 183 184 184 164 159 168 152 137 132 114 87 59 52 26 28 8 349 338 345 357 4 325 338 326 327 357 323 1 355 14 358 39 28 41 39 19 27 29 9 16 15 11
183 178 183 178 174 176 174 172 174 166 164 172 180 185 182 173 179 172 162 176 190 183 181 166 161 153 193 151 132 103 83 74 43 20 38 356 343 6 353 359 358 335 348 323 346 358 334 12 338 16 27 24 51 27 21 34 16 23 35 33 20 13
183 176 177 177 174 176 172 171 173 167 165 186 180 185 179 175 182 176 172 170 186 187 183 171 160 160 171 141 137 103 51 47 26 11 10 27 331 3 14 358 17 346 338 341 353 344 356 8 341 17 25 7 46 52 46 38 27 37 37 36 28 32
180 177 178 175 174 174 171 173 174 169 166 188 180 183 177 180 180 177 172 173 181 195 188 170 160 155 167 146 107 95 65 39 10 19 13 5 334 5 28 0 16 356 343 343 350 359 352 14 1 13 18 39 54 44 35 40 37 68 36 30 40 37
180 177 176 175 176 178 171 181 177 172 174 181 184 176 181 179 183 182 176 178 178 190 190 166 156 159 161 109 101 81 74 35 13 15 5 349 1 15 29 10 13 6 346 335 345 8 345 14 357 12 45 57 57 49 41 29 42 55 49 36 38 33
174 179 176 175 176 176 181 183 178 172 170 175 180 181 180 188 186 180 176 178 182 191 196 163 158 157 140 119 97 96 75 31 20 11 14 345 32 25 27 19 6 11 355 338 349 355 351 352 348 336 73 45 44 48 52 38 56 65 37 32 36 18
177 177 177 176 180 185 183 182 171 165 165 168 171 176 182 200 196 182 181 174 187 191 196 161 157 144 145 147 117 85 56 33 11 10 29 344 24 45 28 21 14 360 355 354 340 350 343 329 333 350 110 105 81 56 53 37 38 64 42 37 21 17
179 175 174 175 184 186 183 175 169 166 166 173 175 176 189 202 196 195 172 181 189 196 174 161 151 134 133 122 119 73 69 12 31 11 32 22 13 29 20 16 14 360 353 345 32 344 349 325 16 91 93 137 85 80 49 41 43 50 36 34 24 23
176 175 175 182 185 183 179 177 171 173 169 173 177 176 182 195 197 186 178 183 191 185 164 155 148 146 131 121 81 75 45 41 18 53 35 38 33 30 22 12 352 2 360 354 22 350 352 312 305 152 162 146 131 96 80 63 30 43 35 27 29 33
174 176 181 185 181 181 182 182 176 176 170 175 177 178 176 192 188 170 188 185 185 179 149 156 147 137 130 110 94 76 44 49 37 55 50 48 43 37 25 14 358 342 47 9 16 359 4 324 71 351 307 162 163 167 141 83 49 50 28 39 34 33
178 179 182 184 182 179 174 167 174 163 170 175 183 182 177 182 172 172 179 186 180 162 149 151 145 135 116 85 71 52 57 61 44 39 54 52 46 38 25 13 6 4 329 62 38 30 16 6 359 332 227 246 150 196 182 179 113 90 67 42 32 39
177 182 178 178 181 166 166 154 168 163 169 177 170 163 160 168 172 170 175 180 164 157 147 158 146 138 111 88 64 69 81 67 66 49 52 49 41 35 44 13 12 20 327 8 52 50 29 23 12 347 26 353 42 298 171 98 12 115 109 87 45 42
177 181 176 163 172 164 153 158 164 162 164 160 148 165 170 178 173 169 167 171 158 152 154 154 142 129 103 100 85 75 73 84 70 64 58 63 51 38 8 29 20 29 10 349 51 53 54 32 33 19 2 328 228 146 25 20 315 112 10 63 56 47
173 171 166 161 160 157 162 169 164 160 164 172 163 174 183 178 170 172 172 153 142 161 157 149 142 117 92 96 98 93 83 91 94 81 65 50 52 47 43 31 26 14 33 21 356 45 67 74 48 40 36 39 20 7 356 343 308 35 128 109 70 52
168 163 160 159 157 151 161 170 172 175 177 176 165 180 181 174 168 162 154 154 151 167 155 146 122 106 108 102 101 91 90 87 93 96 76 62 58 51 49 35 25 29 21 30 11 52 25 56 91 55 58 57 42 38 21 354 10 309 334 86 82 40
162 169 165 160 169 168 169 177 186 189 181 178 164 173 172 166 153 147 145 156 161 156 152 132 125 120 116 109 99 100 99 94 93 81 81 70 62 55 68 66 46 40 39 37 31 36 48 30 26 74 52 52 87 81 47 31 3 346 332 323 79 65
178 173 168 159 164 163 165 185 194 187 176 165 165 158 149 147 158 160 156 168 166 147 135 124 127 126 115 102 111 105 105 107 93 86 77 86 75 73 62 58 55 54 51 50 43 39 47 46 40 33 37 66 54 43 92 62 8 350 356 325 41 9
178 180 168 158 164 167 180 176 181 191 174 160 147 153 167 156 165 169 164 167 157 154 144 142 137 126 118 112 107 111 109 104 94 74 72 77 89 81 74 71 61 62 65 67 58 53 47 54 55 49 31 18 28 54 73 71 42 6 34 357 329 0
172 153 157 155 150 165 185 194 181 191 164 146 153 168 170 163 175 173 169 165 166 156 149 145 139 125 120 114 118 113 112 102 93 95 87 92 82 79 84 88 85 78 66 61 71 73 69 58 59 55 42 39 45 33 20 30 13 14 348 10 338 30
166 165 162 161 160 158 183 183 173 189 163 161 159 175 181 179 179 176 172 168 161 154 149 146 142 133 131 130 121 117 125 118 103 91 89 82 83 86 86 82 82 79 79 75 72 70 65 63 61 69 54 54 53 43 37 24 14 3 0 16 350 9
161 162 148 156 167 163 176 183 181 170 178 175 181 175 184 189 177 178 173 167 164 156 151 150 147 143 139 142 134 138 132 120 107 95 95 93 87 85 85 85 87 83 75 71 66 64 67 59 51 49 66 58 51 47 42 27 16 12 11 352 1 4
164 168 163 152 174 170 178 190 185 164 178 191 193 183 184 182 188 181 170 169 169 155 151 149 146 144 145 142 135 126 120 104 98 104 100 93 90 86 91 96 89 86 84 79 79 76 73 70 65 57 51 57 47 49 46 33 26 25 18 13 21 11
173 172 146 166 179 180 171 178 174 152 175 197 162 210 195 185 184 180 171 167 163 154 148 148 143 137 144 139 133 132 126 120 108 104 104 103 100 100 100 98 91 85 81 79 80 78 76 73 70 65 57 56 61 53 45 37 34 28 31 21 14 359
164 176 159 176 187 180 176 166 157 181 179 179 175 185 204 178 183 179 165 163 161 152 145 138 137 142 140 141 136 133 130 116 114 111 110 110 112 109 106 101 97 95 94 92 91 91 91 83 76 70 68 67 68 58 47 39 39 37 30 17 13 8
161 167 173 180 183 177 171 167 169 162 165 183 182 184 176 184 181 171 165 161 160 148 139 140 141 141 142 140 141 135 124 121 116 114 111 109 109 108 107 102 100 99 94 91 87 82 79 80 82 77 74 69 69 67 58 50 42 38 33 20 24 17